[[{"header":{"parameterUnit":"m.s-1","parameterCategory":2,"la1":30.2992,"la2":30.254,"lo1":-89.0895,"lo2":-89.0443,"dy":0.0025,"dx":0.0025,"nx":19,"ny":19,"refTime":"2026-04-28T09:00:00:Z","depth":"0","parameterNumber":2,"parameterNumberName":"U-component_of_CURRENTS"},"data":[0,0,0,0.3256,0.3259,0.3403,0.3404,0.3553,0.3554,0,0,0,0,0,0,0,0,0,0,0,0.3189,0.319,0.3255,0.3259,0.3403,0.3404,0.3553,0.3554,0,0,0,0,0,0,0,0,0,0,0,0.3189,0.319,0.319,0.3259,0.3403,0.3404,0.3552,0.3452,0,0,0,0,0,0,0,0,0,0,0.3316,0.3259,0.3189,0.319,0.326,0.3403,0.3404,0.3448,0.3458,0.3477,0,0.3492,0,0.3535,0.3563,0.3564,0,0,0,0.3258,0.325,0.3294,0.319,0.3262,0.3403,0.3338,0.3454,0.3466,0.3491,0.3495,0.3501,0.3537,0.3564,0.3565,0.371,0.3711,0,0,0.325,0.3215,0.3285,0.3301,0.3289,0.3333,0.3342,0.3461,0.3466,0.3495,0.3505,0.3539,0.3565,0.3566,0.371,0.371,0,0,0,0.3228,0.3209,0.325,0.3293,0.3327,0.3337,0.3348,0.3461,0.3475,0.3507,0.3541,0.3566,0.3568,0.3709,0.371,0.3739,0,0,0,0.3223,0.3197,0.3246,0.3227,0.3325,0.3402,0.3344,0.3467,0.3482,0.354,0.3566,0.3569,0.3709,0.371,0.3737,0.3741,0,0,0,0.3184,0.3193,0.3207,0.3224,0.329,0.3401,0.3423,0.3471,0.3503,0.3564,0.3569,0.3708,0.3709,0.3735,0.3739,0.3768,0,0,0,0.3147,0.3174,0.3206,0.3249,0.3289,0.3395,0.3423,0.3508,0.356,0.3567,0.3709,0.371,0.3734,0.3737,0.3766,0.3649,0.3648,0,0,0.3164,0.3175,0.3203,0.3236,0.3321,0.3376,0.3483,0.356,0.3586,0.3665,0.3669,0.3738,0.3738,0.3767,0.3726,0.3722,0,0,0,0.3198,0.3204,0.3241,0.3292,0.338,0.3473,0.3554,0.3604,0.3691,0.3626,0.3757,0.3756,0.3773,0.37,0.3698,0.365,0.3716,0.3716,0.3716,0.3128,0.319,0.3243,0.3329,0.3401,0.3544,0.363,0.3709,0.3728,0.3774,0.3794,0.3855,0.3778,0.3775,0.3728,0.3815,0.3816,0.3816,0.3816,0.3113,0.3124,0.3226,0.3291,0.341,0.3495,0.3689,0.3744,0.3866,0.3853,0.3868,0.3752,0.3773,0.3724,0.3818,0.3818,0.3817,0.3817,0.3817,0.3016,0.3036,0.3096,0.3198,0.3305,0.3462,0.3593,0.3749,0.3864,0.3918,0.3829,0.3826,0.3769,0.3919,0.3919,0.392,0.392,0.392,0.392,0.2871,0.2951,0.2977,0.3104,0.3153,0.3282,0.3536,0.3649,0.379,0.385,0.3849,0.3779,0.3886,0.3866,0.3923,0.3922,0.3922,0.3921,0.3921,0.2717,0.2782,0.2807,0.2854,0.2985,0.3014,0.3294,0.3477,0.3641,0.3672,0.3712,0.3819,0.3796,0.3796,0.3774,0.3804,0.3804,0.3804,0.3804,0.2596,0.2641,0.2645,0.2679,0.276,0.2879,0.289,0.3102,0.3403,0.3505,0.3641,0.3581,0.3588,0.3552,0.3557,0.353,0.3497,0.3497,0.3497,0.2497,0.2525,0.2469,0.2543,0.2627,0.2679,0.2586,0.266,0.3151,0.3486,0.3604,0.3617,0.3534,0.3548,0.3493,0.3504,0.346,0,0]},{"header":{"parameterUnit":"m.s-1","parameterCategory":2,"la1":30.2992,"la2":30.254,"lo1":-89.0895,"lo2":-89.0443,"dy":0.0025,"dx":0.0025,"nx":19,"ny":19,"refTime":"2026-04-28T09:00:00:Z","depth":"0","parameterNumber":3,"parameterNumberName":"V-component_of_CURRENTS"},"data":[0,0,0,0.0591,0.059,0.054,0.0539,0.0418,0.0417,0,0,0,0,0,0,0,0,0,0,0,0.0603,0.0603,0.0591,0.059,0.054,0.0539,0.0418,0.0417,0,0,0,0,0,0,0,0,0,0,0,0.0603,0.0603,0.0603,0.059,0.054,0.0539,0.0418,0.0466,0,0,0,0,0,0,0,0,0,0,0.052,0.0554,0.0603,0.0603,0.059,0.054,0.0539,0.0468,0.0463,0.0431,0,0.0434,0,0.0432,0.0409,0.0409,0,0,0,0.057,0.0559,0.0542,0.0603,0.059,0.054,0.0557,0.0466,0.0459,0.0423,0.0432,0.0428,0.043,0.0409,0.0408,0.0414,0.0415,0,0,0.0573,0.0591,0.0547,0.0539,0.0589,0.0559,0.0556,0.0462,0.0461,0.0432,0.0426,0.0428,0.0408,0.0407,0.0413,0.0414,0,0,0,0.0595,0.0593,0.0579,0.0543,0.0544,0.0558,0.0554,0.0465,0.046,0.0424,0.0427,0.0407,0.0406,0.0412,0.0413,0.0543,0,0,0,0.0595,0.0607,0.0581,0.059,0.0547,0.0514,0.0559,0.0466,0.0456,0.0427,0.0407,0.0405,0.0411,0.0413,0.0538,0.0642,0,0,0,0.0603,0.0607,0.0605,0.0591,0.0579,0.0516,0.0505,0.0464,0.0458,0.0409,0.0404,0.041,0.0412,0.0533,0.0632,0.0688,0,0,0,0.0616,0.0643,0.0606,0.0635,0.058,0.0595,0.0506,0.0502,0.0473,0.0407,0.0411,0.0413,0.0531,0.0626,0.0682,0.07,0.0729,0,0,0.0663,0.0649,0.0667,0.0633,0.0687,0.06,0.0648,0.0567,0.0492,0.0431,0.0431,0.0539,0.0631,0.0687,0.0825,0.0851,0,0,0,0.069,0.0711,0.0719,0.0736,0.0723,0.0736,0.0655,0.0628,0.0586,0.0487,0.0547,0.0602,0.0632,0.063,0.0651,0.0479,0.0423,0.0423,0.0423,0.0766,0.0769,0.0827,0.0835,0.0845,0.0828,0.0836,0.0782,0.0675,0.069,0.0712,0.0857,0.0856,0.0872,0.0695,0.069,0.069,0.0691,0.0691,0.0856,0.0891,0.0915,0.0974,0.0986,0.1015,0.0997,0.095,0.0957,0.0849,0.0869,0.0774,0.0903,0.0706,0.07,0.0698,0.0697,0.0696,0.0696,0.0897,0.0925,0.0962,0.1055,0.1137,0.1142,0.1245,0.1199,0.1107,0.1145,0.1083,0.108,0.0901,0.1124,0.1124,0.1125,0.1126,0.1126,0.1127,0.0922,0.0969,0.1051,0.1145,0.1218,0.1326,0.139,0.1416,0.1366,0.127,0.1267,0.0944,0.0989,0.0966,0.1138,0.1136,0.1135,0.1134,0.1133,0.0972,0.0999,0.1119,0.1202,0.1384,0.1531,0.1588,0.1636,0.1617,0.159,0.1179,0.1308,0.127,0.1251,0.1234,0.1466,0.1466,0.1466,0.1466,0.1005,0.1027,0.1192,0.1327,0.1503,0.1629,0.1796,0.1787,0.1521,0.1329,0.1219,0.1087,0.1081,0.1021,0.1007,0.098,0.1143,0.1142,0.1141,0.1051,0.1101,0.1214,0.1353,0.1554,0.1742,0.1883,0.1889,0.1443,0.1107,0.0982,0.0996,0.0774,0.0778,0.0654,0.0649,0.0593,0,0]}],[{"header":{"parameterUnit":"m.s-1","parameterCategory":2,"la1":30.2992,"la2":30.254,"lo1":-89.0895,"lo2":-89.0443,"dy":0.0025,"dx":0.0025,"nx":19,"ny":19,"refTime":"2026-04-28T09:00:00:Z","depth":"2","parameterNumber":2,"parameterNumberName":"U-component_of_CURRENTS"},"data":[0,0,0,0.2898,0.2904,0.3221,0.3223,0.3381,0.3382,0,0,0,0,0,0,0,0,0,0,0,0.2717,0.2718,0.2897,0.2905,0.3221,0.3223,0.3381,0.3382,0,0,0,0,0,0,0,0,0,0,0,0.2717,0.2717,0.2718,0.2906,0.3221,0.3223,0.3381,0.3203,0,0,0,0,0,0,0,0,0,0,0.2926,0.2859,0.2717,0.2718,0.2908,0.3221,0.3223,0.3197,0.3214,0.3168,0,0.3174,0,0.3308,0.3387,0.3387,0,0,0,0.2903,0.2845,0.2878,0.2718,0.2911,0.322,0.3078,0.3208,0.3227,0.3189,0.3178,0.3189,0.3311,0.3388,0.3388,0.3448,0.3448,0,0,0.2886,0.2836,0.2865,0.2888,0.2934,0.3068,0.3088,0.3222,0.3241,0.3179,0.3196,0.3314,0.3388,0.3389,0.3448,0.3448,0,0,0,0.2837,0.2823,0.2859,0.2876,0.297,0.3077,0.31,0.3235,0.323,0.3199,0.3315,0.3388,0.3389,0.3448,0.3448,0.3546,0,0,0,0.2826,0.2796,0.2849,0.2833,0.2967,0.3162,0.3109,0.3219,0.3243,0.3315,0.3389,0.339,0.3447,0.3448,0.3543,0.3539,0,0,0,0.2713,0.2789,0.2793,0.2827,0.297,0.3163,0.3172,0.3229,0.3313,0.3387,0.339,0.3447,0.3448,0.3541,0.3536,0.356,0,0,0,0.2696,0.2753,0.279,0.2897,0.2966,0.3139,0.3173,0.3311,0.3373,0.3389,0.3447,0.3448,0.354,0.3534,0.3558,0.3259,0.3244,0,0,0.2769,0.2761,0.2824,0.2867,0.2998,0.3099,0.3272,0.3351,0.3354,0.3385,0.3389,0.3544,0.3536,0.356,0.327,0.3254,0,0,0,0.2851,0.2859,0.2908,0.2998,0.3116,0.3237,0.3356,0.3401,0.3476,0.3398,0.352,0.3509,0.3523,0.3337,0.3326,0.3448,0.3448,0.3448,0.3448,0.2786,0.2876,0.297,0.3067,0.3167,0.3339,0.3442,0.351,0.3507,0.3543,0.3575,0.3631,0.3434,0.3421,0.358,0.358,0.3581,0.3581,0.3581,0.2837,0.2882,0.2985,0.311,0.3207,0.3334,0.3517,0.3568,0.367,0.364,0.3651,0.3429,0.3413,0.3588,0.3587,0.3586,0.3585,0.3585,0.3584,0.276,0.2805,0.2897,0.3041,0.3164,0.3322,0.3439,0.3587,0.3701,0.3757,0.3505,0.3499,0.3679,0.3751,0.3751,0.3751,0.3751,0.3751,0.3751,0.2642,0.2748,0.2801,0.2963,0.3016,0.314,0.3378,0.3458,0.3506,0.3537,0.3535,0.3686,0.3681,0.3686,0.3753,0.3753,0.3753,0.3752,0.3752,0.2549,0.2601,0.2649,0.2703,0.2827,0.282,0.3075,0.3132,0.3264,0.3231,0.3416,0.3423,0.3348,0.3351,0.3346,0.3322,0.3322,0.3322,0.3322,0.2437,0.2487,0.2492,0.2509,0.255,0.266,0.2566,0.2654,0.287,0.2918,0.2937,0.2836,0.286,0.2754,0.2772,0.2753,0.2575,0.2574,0.2574,0.2349,0.2369,0.2299,0.2352,0.2406,0.2396,0.2212,0.2149,0.232,0.2554,0.291,0.3251,0.3147,0.3169,0.304,0.3056,0.3039,0,0]},{"header":{"parameterUnit":"m.s-1","parameterCategory":2,"la1":30.2992,"la2":30.254,"lo1":-89.0895,"lo2":-89.0443,"dy":0.0025,"dx":0.0025,"nx":19,"ny":19,"refTime":"2026-04-28T09:00:00:Z","depth":"2","parameterNumber":3,"parameterNumberName":"V-component_of_CURRENTS"},"data":[0,0,0,0.0285,0.0284,0.0274,0.0274,0.0175,0.0174,0,0,0,0,0,0,0,0,0,0,0,0.0285,0.0284,0.0285,0.0284,0.0274,0.0274,0.0175,0.0173,0,0,0,0,0,0,0,0,0,0,0,0.0285,0.0285,0.0284,0.0284,0.0274,0.0274,0.0175,0.0208,0,0,0,0,0,0,0,0,0,0,0.0229,0.0265,0.0285,0.0284,0.0284,0.0274,0.0274,0.021,0.0205,0.015,0,0.0137,0,0.0145,0.0164,0.0163,0,0,0,0.0297,0.0269,0.0235,0.0284,0.0283,0.0274,0.0282,0.0208,0.0203,0.0143,0.0136,0.0133,0.0143,0.0163,0.0162,0.0094,0.0094,0,0,0.0298,0.0313,0.0239,0.0231,0.0263,0.0283,0.0282,0.0206,0.0208,0.0136,0.0131,0.0141,0.0162,0.0161,0.0094,0.0094,0,0,0,0.029,0.0314,0.0285,0.0235,0.0235,0.0282,0.0281,0.0213,0.0194,0.013,0.014,0.0161,0.0159,0.0093,0.0094,0.0285,0,0,0,0.0291,0.0308,0.0285,0.0298,0.0237,0.0243,0.029,0.02,0.0192,0.0141,0.0161,0.0158,0.0093,0.0093,0.0279,0.0386,0,0,0,0.0289,0.0309,0.0295,0.0298,0.0285,0.0244,0.0224,0.0199,0.0196,0.0163,0.0157,0.0092,0.0093,0.0274,0.0375,0.0406,0,0,0,0.0322,0.0346,0.0296,0.0329,0.0285,0.0298,0.0225,0.023,0.0211,0.016,0.0093,0.0094,0.0272,0.0368,0.04,0.0271,0.0288,0,0,0.0379,0.0353,0.0374,0.0329,0.035,0.0302,0.036,0.0294,0.0201,0.0112,0.0111,0.0281,0.0374,0.0404,0.032,0.0336,0,0,0,0.0411,0.0415,0.0407,0.0413,0.0395,0.0426,0.0367,0.0341,0.03,0.0189,0.0244,0.0296,0.031,0.0218,0.023,0.0098,0.0098,0.0098,0.0097,0.0471,0.0475,0.0524,0.0521,0.0527,0.0514,0.0542,0.0491,0.0374,0.0386,0.0425,0.0546,0.045,0.0457,0.0378,0.0379,0.0379,0.038,0.038,0.0575,0.0622,0.0631,0.069,0.0695,0.0742,0.0722,0.0682,0.0677,0.0567,0.0569,0.0391,0.0482,0.0395,0.0392,0.039,0.0389,0.0387,0.0387,0.0626,0.0665,0.0711,0.0805,0.0893,0.0894,0.0983,0.0931,0.0855,0.0891,0.0682,0.0676,0.0668,0.085,0.0851,0.0851,0.0852,0.0852,0.0853,0.0685,0.0736,0.0818,0.091,0.0984,0.1076,0.112,0.1107,0.0975,0.0884,0.088,0.0703,0.0687,0.0692,0.0863,0.0861,0.086,0.0859,0.0858,0.076,0.0781,0.0891,0.0972,0.1131,0.1243,0.1264,0.1185,0.1127,0.1048,0.0843,0.084,0.0755,0.074,0.0742,0.0917,0.0917,0.0917,0.0917,0.0805,0.082,0.0975,0.1089,0.122,0.1324,0.1393,0.1274,0.1062,0.0898,0.0899,0.078,0.0776,0.0684,0.067,0.0667,0.0823,0.0823,0.0824,0.0861,0.0901,0.1001,0.1104,0.1276,0.1386,0.1444,0.1343,0.0984,0.0829,0.0975,0.0893,0.071,0.0708,0.0552,0.0536,0.0525,0,0]}],[{"header":{"parameterUnit":"m.s-1","parameterCategory":2,"la1":30.2992,"la2":30.254,"lo1":-89.0895,"lo2":-89.0443,"dy":0.0025,"dx":0.0025,"nx":19,"ny":19,"refTime":"2026-04-28T09:00:00:Z","depth":"4","parameterNumber":2,"parameterNumberName":"U-component_of_CURRENTS"},"data":[0,0,0,0.1073,0.1074,0.1027,0.1027,0.0997,0.0998,0,0,0,0,0,0,0,0,0,0,0,0.1087,0.1088,0.1073,0.1074,0.1027,0.1027,0.0997,0.0998,0,0,0,0,0,0,0,0,0,0,0,0.1087,0.1088,0.1088,0.1074,0.1028,0.1026,0.0997,0.1014,0,0,0,0,0,0,0,0,0,0,0.1051,0.1072,0.1087,0.1088,0.1074,0.1028,0.1026,0.1014,0.1013,0.1041,0,0.1063,0,0.1053,0.1,0.1001,0,0,0,0.103,0.1073,0.1074,0.1089,0.1074,0.1028,0.1036,0.1013,0.1012,0.104,0.1063,0.1061,0.1052,0.1001,0.1001,0.1075,0.1075,0,0,0.1033,0.1058,0.1075,0.1075,0.1103,0.1038,0.1035,0.1012,0.1022,0.1063,0.1061,0.1052,0.1001,0.1001,0.1074,0.1075,0,0,0,0.1069,0.106,0.1059,0.1076,0.1078,0.1038,0.1034,0.1021,0.1027,0.106,0.1052,0.1001,0.1002,0.1074,0.1075,0.1165,0,0,0,0.1069,0.1084,0.1061,0.1072,0.108,0.1046,0.1045,0.1027,0.1024,0.1052,0.1001,0.1002,0.1073,0.1074,0.1162,0.116,0,0,0,0.1082,0.1085,0.1095,0.1074,0.1075,0.1046,0.1046,0.1025,0.1022,0.1001,0.1002,0.1073,0.1074,0.1159,0.1156,0.1312,0,0,0,0.1084,0.1088,0.1096,0.109,0.1076,0.1054,0.1045,0.1045,0.1034,0.1001,0.1073,0.1074,0.1157,0.1153,0.1307,0.1114,0,0,0,0.1077,0.1088,0.1077,0.1084,0.1045,0.1055,0.1043,0.1048,0.1059,0.1074,0.1075,0.1163,0.1156,0.1311,0.1185,0,0,0,0,0.1065,0.1047,0.1033,0.1028,0.1034,0.1052,0.1054,0.1076,0.113,0.1067,0.1162,0.1153,0.125,0.1122,0.108,0.108,0.108,0.108,0.108,0.1045,0.1036,0.1006,0.0995,0.1017,0.1064,0.1096,0.1142,0.1147,0.1209,0.1229,0.1399,0.1264,0.125,0.1251,0.1251,0.1252,0.1252,0.1252,0.0978,0.0956,0.0985,0.0956,0.1033,0.1073,0.1168,0.1218,0.1338,0.1286,0.1381,0.1222,0.1261,0.1259,0.1258,0.1257,0.1256,0.1256,0.1255,0.094,0.0931,0.0932,0.0936,0.1028,0.111,0.1223,0.1321,0.1423,0.1503,0.146,0.1483,0.148,0.1615,0.1616,0.1617,0.1617,0.1618,0.1618,0.0911,0.0902,0.0882,0.0902,0.0974,0.1102,0.128,0.136,0.1507,0.1519,0.1571,0.1523,0.1511,0.1502,0.1629,0.1627,0.1626,0.1625,0.1624,0.0848,0.0833,0.0803,0.084,0.0971,0.1057,0.1244,0.1387,0.1518,0.1579,0.1557,0.1557,0.1519,0.1508,0.1497,0.1629,0.1627,0.1625,0,0.0809,0.0787,0.0768,0.0823,0.0921,0.105,0.1166,0.1283,0.1435,0.1436,0.1533,0.1504,0.1504,0.145,0.1437,0.1417,0,0,0,0.0766,0.0756,0.0765,0.0789,0.0913,0.1066,0.12,0.1221,0.1439,0.1419,0.1576,0.1588,0.1461,0.1661,0.1605,0.159,0.1574,0,0]},{"header":{"parameterUnit":"m.s-1","parameterCategory":2,"la1":30.2992,"la2":30.254,"lo1":-89.0895,"lo2":-89.0443,"dy":0.0025,"dx":0.0025,"nx":19,"ny":19,"refTime":"2026-04-28T09:00:00:Z","depth":"4","parameterNumber":3,"parameterNumberName":"V-component_of_CURRENTS"},"data":[0,0,0,0.0014,0.0012,-0.0049,-0.0049,-0.0128,-0.0129,0,0,0,0,0,0,0,0,0,0,0,0.0048,0.0048,0.0014,0.0012,-0.0049,-0.0049,-0.0128,-0.0129,0,0,0,0,0,0,0,0,0,0,0,0.0048,0.0048,0.0048,0.0012,-0.0049,-0.0049,-0.0128,-0.008,0,0,0,0,0,0,0,0,0,0,-0.002,0.001,0.0048,0.0048,0.0011,-0.0049,-0.0049,-0.0078,-0.0083,-0.0103,0,-0.0107,0,-0.0129,-0.0135,-0.0135,0,0,0,0.0018,0.0015,-0.0006,0.0048,0.0011,-0.0048,-0.002,-0.008,-0.0087,-0.011,-0.0108,-0.0112,-0.0131,-0.0135,-0.0136,-0.0223,-0.0223,0,0,0.0021,0.0039,-0.0001,-0.0009,0.0,-0.0018,-0.0021,-0.0084,-0.0086,-0.0109,-0.0114,-0.0132,-0.0136,-0.0136,-0.0223,-0.0223,0,0,0,0.0027,0.0041,0.0022,-0.0006,-0.0022,-0.002,-0.0024,-0.0082,-0.009,-0.0115,-0.0133,-0.0136,-0.0137,-0.0223,-0.0223,-0.0206,0,0,0,0.0029,0.0044,0.0024,0.0034,-0.0021,-0.0054,-0.0021,-0.0085,-0.0093,-0.0132,-0.0136,-0.0138,-0.0222,-0.0223,-0.0206,-0.0163,0,0,0,0.005,0.0045,0.004,0.0035,0.0004,-0.0053,-0.0064,-0.0087,-0.0105,-0.0135,-0.0138,-0.0222,-0.0223,-0.0205,-0.0164,-0.0153,0,0,0,0.0068,0.0058,0.0041,0.003,0.0004,-0.0028,-0.0064,-0.0099,-0.0123,-0.0137,-0.0222,-0.0223,-0.0205,-0.0165,-0.0154,-0.0041,0,0,0,0.0063,0.0058,0.0053,0.0035,0.0021,-0.0019,-0.0048,-0.0101,-0.0143,-0.02,-0.0202,-0.0206,-0.0164,-0.0153,-0.0086,0,0,0,0,0.0056,0.0056,0.0051,0.0038,0.001,-0.0015,-0.0073,-0.0113,-0.0182,-0.0163,-0.0225,-0.0199,-0.0193,-0.0131,-0.0227,-0.0226,-0.0226,-0.0226,-0.0226,0.0093,0.0074,0.0075,0.0052,0.0032,-0.0026,-0.0064,-0.0134,-0.0172,-0.0213,-0.0201,-0.0198,-0.0136,-0.0239,-0.0239,-0.0239,-0.0239,-0.0239,-0.0239,0.0112,0.0111,0.0098,0.0088,0.0059,0.003,-0.0061,-0.011,-0.0177,-0.0209,-0.0206,-0.0137,-0.0238,-0.0238,-0.0238,-0.0238,-0.0238,-0.0238,-0.0238,0.0145,0.0136,0.0135,0.013,0.0118,0.0072,0.0056,-0.0038,-0.0134,-0.015,-0.0081,-0.0177,-0.0159,-0.0148,-0.0148,-0.0147,-0.0147,-0.0147,-0.0147,0.0172,0.0165,0.0182,0.0175,0.0192,0.0197,0.0125,0.0079,-0.0023,-0.0024,-0.0126,-0.0167,-0.017,-0.0154,-0.0143,-0.0144,-0.0144,-0.0145,-0.0145,0.0191,0.0189,0.0227,0.0251,0.0298,0.0312,0.0258,0.0196,0.016,0.0118,0.0028,0.0019,0.0032,0.0024,0.0047,0.0118,0.012,0.0121,0,0.0212,0.0209,0.0278,0.0337,0.04,0.0382,0.0404,0.0344,0.021,0.0235,0.0115,0.0016,0.0009,0.0023,0.0019,0.0047,0,0,0,0.0236,0.0256,0.0322,0.0373,0.0444,0.0444,0.0416,0.0399,0.0263,0.023,0.016,0.015,-0.0034,-0.0133,-0.0135,-0.0139,-0.0113,0,0]}]]